SHIJIAN-6 02A (SJ-6 02A)

Last updated on Mon Oct 20 2025 00:03:35 GMT+0000 (Coordinated Universal Time)

1 29505U 06046A 25292.25632084 .00014888 00000+0 84115-3 0 9997 2 29505 97.6703 326.6665 0001915 233.3555 126.7500 15.13206259 35789
UTC large
Height (km)
Speed (km/s)
/
Latitude / Longitude
Inclination (degrees)
Orbital Period (minutes)
Azimuth
Elevation
Range (km)
Doppler Factor

Next 0 passes for location: London (51.5072 / 0.1276)

Sorry there are no passes over London.